www.pogodaiklimat.ru

Погода и климат >> Архив погоды >> Индонезия >> Неира


ПОГОДА в Неира

  • Прогноз погоды в Неира
  • Монитор погоды в Неира

АРХИВ ПОГОДЫ в Неира

Время (UTC), дата Ветер
(напр.,м/с)
 
Видим.   Явления Облачность Т
(С)
Тd
(С)
f
(%)
Тe
(С)
Тes
(С)
Комфортность P
(гПа)
Po
(гПа)
Тmin
(С)
Tmax
(С)
R
(мм)
R24
(мм)
S
(см)
00 14.06 Ю 3 3000 м слаб. дождь 9/8 500 м
[Cu Sc Ac As]
+25.8 +23.2 86 +35 +35 очень
душно
1011.8 1009.8 +23.2 4
03 14.06 СВ 3 11 км в посл. час дождь 8/5 540 м
[Cu Sc Ac As Ci fib]
+27.5 +23.6 79 +37 +43 очень
душно
1010.2 1008.2 0.0
06 14.06 Ю 3 11 км {дождь} 9/6 540 м
[Cu Sc Ac As Ci sp]
+28.0 +23.7 77 +38 +41 очень
душно
1008.2 1006.1 0.0
09 14.06 ЮВ 3 10 км 8/4 600 м
[Cu hum Ac trans Ci sp]
+26.8 +23.0 80 +36 +36 очень
душно
1008.7 1006.6
12 14.06 Ю 2 8000 м 9/6 600 м
[Cu hum Ac trans Ci fib]
+26.6 +23.4 83 +36 +36 очень
душно
1010.8 1008.8 +28.4
21 14.06 В 2 8000 м 6/5 600 м
[Cu hum As op]
+26.3 +23.6 85 +36 +36 очень
душно
1010.3 1008.3
00 15.06 СВ 2 10 км {дождь} 9/8 480 м
[Cu Sc Ac As]
+26.8 +24.2 86 +37 +38 очень
душно
1012.3 1010.3 +24.1 0.0
03 15.06 Ю 4 13 км {дождь} 5/3 570 м
[Cu hum Ac trans]
+29.5 +23.9 72 +41 +48 опасность
перегрева
1011.3 1009.2 0.0
06 15.06 ЮЗ 5 13 км {дождь} 9/1 600 м
[Cu hum Ac trans]
+28.6 +23.4 73 +39 +41 очень
душно
1009.3 1007.2 0.0
09 15.06 В 3 10 км 9/1 600 м
[Cu hum Ac trans]
+27.0 +22.9 78 +36 +36 очень
душно
1009.6 1007.6
12 15.06 ЮЗ 2 10 км 8/4 600 м
[Cu hum Ac trans Ci sp]
+26.8 +23.3 81 +36 +36 очень
душно
1012.0 1010.0 +30.0
21 15.06 штиль 0 8000 м 9/6 600 м
[Cu Sc Ac trans Ci sp]
+26.2 +23.0 83 +35 +35 очень
душно
1011.1 1009.1
00 16.06 В 3 7000 м 9/8 600 м
[Cu Sc Ac trans Ci sp]
+27.2 +22.8 77 +36 +37 очень
душно
1012.9 1010.9 +20.0
03 16.06 Ю 3 10 км 9/4 600 м
[Cu hum Ac trans Ci sp]
+28.4 +24.1 78 +40 +45 очень
душно
1012.0 1010.0
06 16.06 ЮВ 1 9000 м 9/5 570 м
[Cu Sc Ac As Ci fib]
+28.2 +23.6 76 +38 +42 очень
душно
1010.1 1008.0
09 16.06 штиль 0 8000 м 9/3 600 м
[Cu hum Ac trans Ci fib]
+26.7 +23.4 82 +36 +36 очень
душно
1010.7 1008.7
12 16.06 В 3 8000 м 9/1 600 м
[Cu hum Ac trans]
+26.6 +23.7 84 +36 +36 очень
душно
1012.0 1010.0 +29.8
21 16.06 ЮЗ 1 8000 м 9/1 600 м
[Cu hum Ac und]
+26.2 +22.7 81 +35 +35 очень
душно
1011.9 1009.9
00 17.06 ЮВ 4 12 км 6/5 600 м
[Cu Sc Ac trans Ci fib]
+28.2 +23.3 75 +38 +40 очень
душно
1013.0 1010.9 +24.2
03 17.06 Ю 3 12 км 6/3 600 м
[Cu hum Ac trans Ci fib]
+29.2 +22.8 68 +39 +47 очень
душно
1012.3 1010.2
06 17.06 Ю 2 15 км 8/4 600 м
[Cu hum Ac trans Ci fib]
+28.4 +23.2 73 +38 +42 очень
душно
1010.6 1008.5
09 17.06 ЮВ 1 12 км 6/3 600 м
[Cu hum Ac trans Ci fib]
+27.0 +22.6 77 +36 +36 очень
душно
1011.4 1009.3
12 17.06 Ю 1 10 км 8/6 600 м
[Cu hum Ci fib]
+25.5 +23.0 86 +34 +34 очень
душно
1013.0 1010.9 +29.8
21 17.06 В 2 9000 м 4/3 600 м
[Cu hum Ac trans Ci sp]
+25.6 +22.7 84 +34 +34 очень
душно
1012.1 1010.1
00 18.06 ЮВ 2 12 км 8/3 600 м
[Cu hum Ac trans Ci fib]
+27.8 +23.8 79 +38 +41 очень
душно
1013.3 1011.2 +23.8
03 18.06 Ю 3 12 км 5/1 600 м
[Cu hum Ac trans Ci fib]
+28.8 +26.3 86 +44 +55 опасность
перегрева
1011.5 1009.4
06 18.06 Ю 3 12 км 9/3 600 м
[Cu hum Ac trans Ci sp]
+28.0 +22.5 72 +37 +40 очень
душно
1010.2 1008.1
09 18.06 З 2 10 км 9/4 600 м
[Cu hum Ac trans Ci sp]
+26.8 +25.7 94 +40 +40 очень
душно
1010.7 1008.6
12 18.06 ЮЗ 2 9000 м 4/1 600 м
[Cu hum Ac trans]
+26.2 +23.3 84 +35 +35 очень
душно
1012.5 1010.5 +29.2
21 18.06 В 2 9000 м 6/6 570 м
[Cu hum Ac trans]
+26.0 +24.0 89 +36 +36 очень
душно
1011.6 1009.6
00 19.06 Ю 2 12 км 4/4 600 м
[Cu hum Ci fib]
+27.6 +22.3 73 +36 +40 очень
душно
1012.3 1010.2 +23.6
03 19.06 Ю 3 12 км 6/6 600 м
[Cu Sc]
+28.4 +22.6 71 +38 +44 очень
душно
1011.4 1009.3
06 19.06 З 4 12 км 6/6 600 м
[Cu Sc Ac trans]
+28.4 +21.9 68 +37 +40 очень
душно
1009.8 1007.7
09 19.06 СЗ 3 8000 м 8/6 540 м
[Cu Sc Ac trans Ci sp]
+27.0 +22.9 78 +36 +36 очень
душно
1010.3 1008.2
12 19.06 СЗ 3 8000 м 8/6 570 м
[Cu Sc Ac trans Ci sp]
+26.4 +22.9 81 +35 +35 очень
душно
1011.4 1009.3 +29.4
21 19.06 СВ 2 7000 м 6/5 600 м
[Cu hum Ac trans Ci sp]
+26.0 +23.7 87 +35 +35 очень
душно
1010.4 1008.4
00 20.06 СВ 2 10 км 9/4 600 м
[Cu hum Ac trans]
+27.0 +22.3 75 +35 +37 очень
душно
1012.3 1010.3 +19.8
03 20.06 СВ 2 8000 м в посл. час дождь 9/6 600 м
[Cu hum Ac trans]
+28.4 +23.5 75 +39 +42 очень
душно
1011.7 1009.6 0.0
06 20.06 ЮВ 2 14 км {ливн. осадки} 3/1 600 м
[Cu med, cong Ci fib]
+29.0 +22.9 70 +39 +47 очень
душно
1010.0 1007.9 0.0
09 20.06 Ю 2 11 км 8/3 600 м
[Cu hum As trans]
+26.8 +22.1 75 +35 +35 очень
душно
1010.9 1008.8
12 20.06 СВ 3 8000 м в посл. час дождь 9/4 570 м
[Cu Sc Ac As]
+25.8 +22.9 84 +34 +34 очень
душно
1012.8 1010.8 +29.4 0.0
21 20.06 Ю 3 8000 м в посл. час дождь 9/8 570 м
[Cu Sc Ac trans Ci sp]
+26.0 +23.1 84 +35 +35 очень
душно
1011.1 1009.1 0.0

 

Местоположение метеостанции Неира (Индонезия): широта -4.53 долгота 129.90 высота над уровнем моря 4 м.

В архиве по умолчанию представлена погода в Неира за последнюю неделю. Архивные данные за месяц целиком и за предыдущие месяцы, начиная с января 2011 года, Вы можете получить, выбрав интересующий диапазон дат из раскрывающегося списка и нажав кнопку "Ввод!".


*Определитесь, кто Вы:
робот инопланетянин человек

Внимание! Время в таблицах - всемирное. Для получения местного времени необходимо прибавить поправку, которая равна 9 ч.

Смотрите также архив погоды в соседних городах и на ближайших метеорологических станциях:

Погода в Гесере (Индонезия) (131 км)
Погода в Амахаи (Индонезия) (173 км)
Погода в Амбоне (Индонезия) (222 км)
Погода в Факфаке (Индонезия) (317 км)
Погода в Туале (Индонезия) (341 км)
Погода в Намлеа (Индонезия) (344 км)
Погода в Саумлаки (Индонезия) (414 км)
Погода в Аэропорту Соронг-Джефман (Индонезия) (422 км)
Погода в Каимана (Индонезия) (438 км)
Погода в Тауне (Индонезия) (503 км)

Пояснения к столбцам:

Ветер - указаны скорость ветра в м/с - средняя за 10 мин, порывы в срок и между сроками (в фигурных скобках) и направление, откуда дует ветер: С - северный, СВ - северо-восточный, В - восточный, ЮВ - юго-восточный, Ю - южный, ЮЗ - юго-западный, З - западный, СЗ - северо-западный.
Видимость - горизонтальная дальность видимости в метрах или километрах. При видимости от 1 до 10 км при отсутствии осадков обычно наблюдается дымка, при ухудшении видимости до 1 км и менее - туман. В сухую погоду видимость может ухудшаться дымом, пылью или мглою.
Явления - указаны атмосферные явления, наблюдавшиеся в срок или в последний час перед сроком; фигурными скобками обозначены явления, наблюдавшиеся между сроками (за 1-3 часа до срока); квадратными скобками обозначены град или гололедные отложения с указанием их диаметра в мм.
Облачность - указаны через наклонную черту общая и нижняя облачность в баллах и высота нижней границы облаков в метрах; квадратными скобками обозначены формы облаков: Ci - перистые, Cs - перисто-слоистые, Cc - перисто-кучевые, Ac - высококучевые, As - высокослоистые, Sc - слоисто-кучевые, Ns - слоисто-дождевые, Cu - кучевые, Cb - кучево-дождевые. Подробнее классификацию облаков см. в Атласе облаков (PDF).
T - Температура воздуха - температура, измеренная на высоте 2 м над землей.
Td - Температура точки росы - температура, при понижении до которой содержащийся в воздухе водяной пар достигнет насыщения.
f - Относительная влажность воздуха - влажноcть воздуха, измеренная на высоте 2 м над землей.
Te - Эффективная температура - температура, которую ощущает одетый по сезону человек в тени. Характеристика душности погоды. При расчете учитывается влияние влажности воздуха и скорости ветра на теплоощущения человека.
Tes - Эффективная температура на солнце - температура, которую ощущает человек, с поправкой на солнечный нагрев. Характеристика знойности погоды. Зависит от высоты солнца над горизонтом, облачности и скорости ветра. Ночью, в пасмурную погоду, а также при ветре 12 м/с и более поправка равна нулю.
P - Атмосферное давление - приведенное к уровню моря атмосферное давление.
Po - Атмосферное давление - измеренное на уровне метеостанции атмосферное давление.
Tmin - Минимальная температура - минимум температуры воздуха на высоте 2 м над землей.
Tmax - Максимальная температура - максимум температуры воздуха на высоте 2 м над землей.
R - Количество осадков - Количество выпавших осадков за период времени, мм. При наведении курсора мыши на число - период времени, за который выпало указанное количество осадков.
R24 - Количество осадков - Количество выпавших осадков за 24 часа, мм.
S - Снежный покров - Высота снежного покрова, см. При наведении курсора мыши на число - состояние снежного покрова и степень покрытия местности в баллах.